Regional Weather Roundup
Issued by NWS State College, PA

Current Version | Previous Version | Text Only | Print | Product List | Glossary On
Versions: 1 2 3 4 5 6 7 8 9 10 11 12 13 14 15 16 17 18 19 20 21 22 23 24 25 26 27 28 29 30 31 32 33 34 35 36 37 38 39 40 41 42 43 44 45 46 47 48 49 50
000
ASUS41 KCTP 240010
RWRCTP

REGIONAL WEATHER ROUNDUP
NATIONAL WEATHER SERVICE STATE COLLEGE PA
700 PM EST SUN NOV 23 2014

Note: "fair" indicates few or no clouds below 12,000 feet with no
significant weather and/or obstructions to visibility.

* = STATION THAT DOES NOT REPORT PRECIPITATION /E.G. RAIN...SNOW...ETC/
    THUNDER OR FOG.

PAZ002>004-007>009-013>016-020>023-029>032-240100-
WESTERN PENNSYLVANIA

CITY           SKY/WX    TMP DP  RH WIND       PRES   REMARKS
ERIE           CLOUDY    55  39  54 SE17      29.72F
MEADVILLE      CLOUDY    54  39  57 VRB7      29.73F
FRANKLIN*      CLOUDY    52  37  58 SE18G24   29.77F
NEW CASTLE       N/A     57  43  59 VRB6      29.72F
BEAVER COUNTY  NOT AVBL
BUTLER*        MOCLDY    55  37  50 SE13      29.78F
PITTSBURGH INT CLOUDY    58  39  49 SE14      29.74F
PITTSBURGH     MOCLDY    57  35  43 SE16      29.75F
INDIANA*       CLEAR     55  36  47 S12G18    29.87F
LATROBE        MOCLDY    57  36  44 S12       29.82F
WASHINGTON CO* CLOUDY    59  39  47 SE10      29.75F
$$

PAZ004>006-010>012-017>019-024>028-033>037-041-042-045-046-049>053-240100-
CENTRAL PENNSYLVANIA

CITY           SKY/WX    TMP DP  RH WIND       PRES   REMARKS
BRADFORD       CLOUDY    48  33  56 SE14G20   29.85F
DUBOIS         MOCLDY    51  33  50 SE12G21   29.83F
CLEARFIELD     MOCLDY    50  29  44 E9        29.89F
JOHNSTOWN      MOCLDY    47  31  53 S14       29.87F
ALTOONA        CLOUDY    49  28  44 E10       29.93F
STATE COLLEGE  CLEAR     50  25  37 SE7       29.95F
WILLIAMSPORT   MOCLDY    37  28  70 NE3       29.99F
SELINSGROVE    MOCLDY    48  28  46 CALM      30.01F
FT INDIANTOWN  MOCLDY    42  28  56 NE5       30.06F
CAPITAL CITY   MOCLDY    46  28  49 E9        30.03F
HARRISBURG     CLOUDY    44  27  51 E7        30.03F
YORK           MOCLDY    46  29  51 SE5       30.03F
$$

PAZ038>040-043-044-047-048-054-055-060>062-067>071-240100-
EASTERN PENNSYLVANIA

CITY           SKY/WX    TMP DP  RH WIND       PRES   REMARKS
SCRANTON       MOCLDY    51  24  34 S8        30.03S
MOUNT POCONO   MOCLDY    44  24  45 SE7       30.06F
ALLENTOWN      MOCLDY    50  26  39 SE7       30.09F
QUAKERTOWN*    MOCLDY    45  28  53 CALM      30.10F
READING        CLOUDY    49  29  46 S3        30.07F
LANCASTER      CLOUDY    41  28  60 E5        30.07F
COATESVILLE    CLOUDY    46  30  53 SE5       30.08F
POTTSTOWN      CLOUDY    43  29  57 CALM      30.10F
BLUE BELL      CLOUDY    43  32  65 CALM      30.09F
DOYLESTOWN     MOCLDY    44  28  53 CALM      30.10F
WILLOW GROVE   NOT AVBL
NORTH PHILA    CLOUDY    49  28  44 CALM      30.13F
PHILADELPHIA   CLOUDY    48  33  56 CALM      30.11F
$$


USA.gov is the U.S. government's official web portal to all federal, state and local government web resources and services.